GW4749 Weather Reports


time (UTC)temp
F
wind
direction
speed
knots
gust
knots
rain 1hr
in
rain 24hr
in
rain mn
in
humidity
%
barometer
mb
20260906110644 78 129 0.0 4.3 0.00 0.00 0.00 97 1019.2
20260906110004 78 122 2.6 5.2 0.00 0.00 0.00 95 1019.2
20260906105324 79 125 1.7 4.3 0.00 0.00 0.00 96 1019.2
20260906104644 79 123 2.6 6.1 0.00 0.00 0.00 95 1019.4
20260906104004 79 131 3.5 6.1 0.00 0.00 0.00 98 1019.4
20260906103324 79 123 3.5 6.1 0.00 0.00 0.00 96 1019.3
20260906102644 80 124 2.6 13.0 0.00 0.00 0.00 98 1019.3
20260906100644 79 128 2.6 3.5 0.00 0.00 0.00 95 1019.1
20260906095324 79 130 0.0 2.6 0.00 0.00 0.00 97 1018.8
20260906094644 78 130 1.7 2.6 0.00 0.00 0.00 97 1018.6
20260906094004 78 127 0.0 1.7 0.00 0.00 0.00 97 1018.8
20260906093324 79 130 0.0 2.6 0.00 0.00 0.00 98 1018.6
20260906092644 79 135 1.7 2.6 0.00 0.00 0.00 97 1018.5
20260906091324 79 129 0.9 2.6 0.00 0.00 0.00 97 1018.5
20260906090644 79 129 0.9 1.7 0.00 0.00 0.00 97 1018.4
20260906090004 79 128 0.9 2.6 0.00 0.00 0.00 97 1018.4
20260906085324 79 129 0.9 2.6 0.00 0.00 0.00 97 1018.3
20260906084644 79 130 0.9 2.6 0.00 0.00 0.00 97 1018.4
20260906083324 79 136 0.0 1.7 0.00 0.00 0.00 97 1018.7
20260906082644 79 135 0.0 3.5 0.00 0.00 0.00 98 1018.8
20260906082004 79 134 1.7 5.2 0.00 0.00 0.00 97 1018.9
20260906080644 79 130 1.7 3.5 0.00 0.00 0.00 98 1019.0
20260906080004 79 132 2.6 3.5 0.00 0.00 0.00 98 1018.8
20260906075324 78 137 1.7 3.5 0.00 0.00 0.00 98 1018.6
20260906074644 78 131 0.9 3.5 0.00 0.00 0.00 97 1018.6
20260906074004 79 131 2.6 2.6 0.00 0.00 0.00 97 1018.6
20260906072004 79 131 0.9 1.7 0.00 0.00 0.00 97 1018.5
20260906071324 79 130 0.9 1.7 0.00 0.00 0.00 96 1018.5
20260906070644 78 135 0.0 1.7 0.00 0.00 0.00 98 1018.6
20260906070004 78 134 1.7 1.7 0.00 0.00 0.00 98 1018.6
20260906065324 79 134 0.0 1.7 0.00 0.00 0.00 98 1018.7
20260906064644 79 131 0.9 1.7 0.00 0.00 0.00 97 1018.8
20260906064004 79 135 0.9 1.7 0.00 0.00 0.00 97 1018.9
20260906063324 79 135 1.7 2.6 0.00 0.00 0.00 97 1019.1
20260906062644 79 134 1.7 2.6 0.00 0.00 0.00 97 1019.0
20260906061324 79 129 0.0 1.7 0.00 0.00 0.00 98 1019.1
20260906060644 79 136 0.9 1.7 0.00 0.00 0.00 96 1019.2
20260906060004 79 135 1.7 1.7 0.00 0.00 0.00 98 1019.2
20260906055328 79 135 0.9 1.7 0.00 0.00 0.00 98 1019.3
20260906054644 79 131 0.0 2.6 0.00 0.00 0.00 97 1019.3
20260906054004 79 131 0.9 2.6 0.00 0.00 0.00 97 1019.4
20260906053324 79 131 2.6 2.6 0.00 0.00 0.00 97 1019.3
20260906051324 80 125 0.9 3.5 0.00 0.00 0.00 95 1019.4
20260906050004 80 125 1.7 3.5 0.00 0.00 0.00 98 1019.5
20260906045323 80 130 0.0 3.5 0.00 0.00 0.00 97 1019.3
20260906044648 80 129 1.7 2.6 0.00 0.00 0.00 97 1019.3
20260906044003 80 134 0.0 2.6 0.00 0.00 0.00 97 1019.2
20260906042643 80 131 1.7 2.6 0.00 0.00 0.00 97 1019.3
20260906042003 80 130 1.7 2.6 0.00 0.00 0.00 97 1019.5
20260906040003 80 131 1.7 2.6 0.00 0.00 0.00 97 1019.2
20260906035323 80 130 0.9 1.7 0.00 0.00 0.00 97 1019.3
20260906034643 80 131 0.0 2.6 0.00 0.00 0.00 97 1019.4
20260906034003 80 131 1.7 2.6 0.00 0.00 0.00 97 1019.5
20260906033323 81 131 1.7 1.7 0.00 0.00 0.00 97 1019.5
20260906032643 81 131 0.9 1.7 0.00 0.00 0.00 97 1019.4
20260906032003 81 131 0.0 2.6 0.00 0.00 0.00 97 1019.3
20260906031323 81 130 1.7 2.6 0.00 0.00 0.00 97 1019.3
20260906030003 81 130 3.5 3.5 0.00 0.00 0.00 97 1019.3
20260906025323 81 131 0.9 1.7 0.00 0.00 0.00 97 1019.3
20260906024643 81 130 1.7 2.6 0.00 0.00 0.00 97 1019.3
20260906024003 81 132 1.7 4.3 0.00 0.00 0.00 97 1019.3
20260906023323 81 130 2.6 4.3 0.00 0.00 0.00 97 1019.3
20260906022643 81 131 1.7 3.5 0.00 0.00 0.00 97 1019.2
20260906022003 82 130 1.7 2.6 0.00 0.00 0.00 97 1019.2
20260906020003 82 131 1.7 5.2 0.00 0.00 0.00 97 1019.1
20260906015323 82 130 2.6 5.2 0.00 0.00 0.00 97 1018.9
20260906014643 82 130 2.6 3.5 0.00 0.00 0.00 97 1018.8
20260906014003 83 131 1.7 3.5 0.00 0.00 0.00 97 1018.8
20260906013323 83 131 0.9 3.5 0.00 0.00 0.00 97 1018.5
20260906012003 83 131 2.6 3.5 0.00 0.00 0.00 97 1018.1
20260906011323 83 130 2.6 5.2 0.00 0.00 0.00 97 1018.0
20260906010643 83 130 2.6 3.5 0.00 0.00 0.00 97 1018.0
20260906010003 84 131 2.6 4.3 0.00 0.00 0.00 97 1017.8
20260906005323 84 130 2.6 4.3 0.00 0.00 0.00 97 1017.9
20260906004643 84 130 3.5 4.3 0.00 0.00 0.00 97 1017.8
20260906003323 84 130 2.6 5.2 0.00 0.00 0.00 97 1017.8
20260906002643 85 130 2.6 4.3 0.00 0.00 0.00 97 1017.7
20260906002003 85 131 3.5 6.1 0.00 0.00 0.00 97 1017.9
20260906000643 85 130 3.5 7.8 0.00 0.00 0.00 97 1017.9
20260906000003 85 130 5.2 8.7 0.00 0.00 0.00 97 1017.9
20260905235323 86 130 5.2 9.6 0.00 0.00 0.00 97 1018.0
20260905234643 86 130 5.2 10.4 0.00 0.00 0.00 97 1018.0
20260905233322 87 130 5.2 8.7 0.00 0.00 0.00 97 1018.0
20260905232642 87 130 6.1 8.7 0.00 0.00 0.00 97 1018.2
20260905232002 87 130 3.5 13.0 0.00 0.00 0.00 97 1018.1
20260905231322 88 130 6.1 13.0 0.00 0.00 0.00 97 1018.0
20260905230642 88 131 4.3 9.6 0.00 0.00 0.00 97 1017.9
20260905230002 88 131 5.2 9.6 0.00 0.00 0.00 97 1017.9
20260905224002 91 130 7.0 11.3 0.00 0.00 0.00 97 1017.8
20260905223322 91 130 6.1 12.2 0.00 0.00 0.00 97 1017.7
20260905222002 93 130 7.0 12.2 0.00 0.00 0.00 97 1017.7
20260905220002 94 131 6.1 11.3 0.00 0.00 0.00 97 1017.5
20260905214642 95 130 7.0 11.3 0.00 0.00 0.00 97 1017.3
20260905214002 96 130 6.1 11.3 0.00 0.00 0.00 97 1017.4
20260905213322 96 130 6.1 11.3 0.00 0.00 0.00 97 1017.4
20260905212642 95 130 7.0 11.3 0.00 0.00 0.00 97 1017.5
20260905211322 95 130 7.0 12.2 0.00 0.00 0.00 97 1017.6
20260905210642 95 130 6.1 8.7 0.00 0.00 0.00 97 1017.6
20260905210002 95 130 4.3 8.7 0.00 0.00 0.00 97 1017.6
20260905205322 95 130 3.5 9.6 0.00 0.00 0.00 97 1017.7
20260905204002 98 130 4.3 7.8 0.00 0.00 0.00 97 1017.8
20260905203322 97 130 5.2 7.8 0.00 0.00 0.00 97 1017.8
20260905202642 99 131 3.5 7.8 0.00 0.00 0.00 97 1017.8
20260905202002 100 130 2.6 7.8 0.00 0.00 0.00 97 1017.8
20260905201323 98 132 2.6 7.8 0.00 0.00 0.00 97 1017.9
20260905200643 96 133 4.3 10.4 0.00 0.00 0.00 97 1018.0
20260905200003 98 130 5.2 9.6 0.00 0.00 0.00 97 1018.0
20260905195323 98 130 5.2 9.6 0.00 0.00 0.00 97 1018.0
20260905194003 96 130 6.1 8.7 0.00 0.00 0.00 97 1018.1
20260905191323 92 130 5.2 10.4 0.00 0.00 0.00 97 1018.6
20260905190643 94 130 6.1 14.8 0.00 0.00 0.00 97 1018.7
20260905185323 95 130 7.8 12.2 0.00 0.00 0.00 97 1018.8
20260905184643 92 131 7.0 10.4 0.00 0.00 0.00 97 1019.0
20260905184003 95 130 3.5 7.8 0.00 0.00 0.00 97 1019.0
20260905183323 93 130 5.2 10.4 0.00 0.00 0.00 97 1019.1
20260905182003 95 131 1.7 7.8 0.00 0.00 0.00 95 1019.2
20260905181323 95 130 5.2 9.6 0.00 0.00 0.00 97 1019.3
20260905180644 97 127 2.6 8.7 0.00 0.00 0.00 97 1019.4
20260905180003 97 126 3.5 6.1 0.00 0.00 0.00 96 1019.4
20260905175323 100 126 3.5 5.2 0.00 0.00 0.00 97 1019.5
20260905174003 98 129 1.7 10.4 0.00 0.00 0.00 97 1019.8
20260905173323 98 125 3.5 7.8 0.00 0.00 0.00 96 1019.9
20260905170003 96 122 6.1 10.4 0.00 0.00 0.00 96 1020.2
20260905165323 94 136 1.7 7.0 0.00 0.00 0.00 97 1020.3
20260905164643 94 127 5.2 7.8 0.00 0.00 0.00 96 1020.4
20260905164003 94 128 2.6 9.6 0.00 0.00 0.00 96 1020.5
20260905163323 95 125 5.2 9.6 0.00 0.00 0.00 96 1020.5
20260905161323 98 132 1.7 7.0 0.00 0.00 0.00 97 1020.7
20260905160643 94 134 4.3 7.0 0.00 0.00 0.00 98 1020.7
20260905160003 97 128 2.6 5.2 0.00 0.00 0.00 96 1020.8
20260905154643 94 127 4.3 7.0 0.00 0.00 0.00 96 1020.6
20260905154003 94 125 1.7 6.1 0.00 0.00 0.00 97 1020.7
20260905153323 92 128 4.3 7.8 0.00 0.00 0.00 95 1020.7
20260905152003 92 127 3.5 7.0 0.00 0.00 0.00 98 1020.5
20260905151323 92 133 2.6 9.6 0.00 0.00 0.00 97 1020.7
20260905150643 90 122 5.2 9.6 0.00 0.00 0.00 96 1020.7
20260905150003 90 122 4.3 8.7 0.00 0.00 0.00 96 1020.7
20260905145323 90 125 4.3 7.8 0.00 0.00 0.00 96 1020.8
20260905144003 89 125 3.5 7.0 0.00 0.00 0.00 95 1020.9
20260905142643 88 125 4.3 8.7 0.00 0.00 0.00 96 1020.9
20260905142004 88 130 4.3 7.0 0.00 0.00 0.00 97 1020.9
20260905141323 86 126 4.3 7.0 0.00 0.00 0.00 98 1021.0
20260905140643 86 124 5.2 7.0 0.00 0.00 0.00 96 1020.9
20260905140003 86 129 3.5 6.1 0.00 0.00 0.00 98 1021.0
20260905135323 85 127 3.5 5.2 0.00 0.00 0.00 98 1021.0
20260905134643 85 136 2.6 5.2 0.00 0.00 0.00 98 1021.1
20260905134003 84 126 3.5 5.2 0.00 0.00 0.00 97 1021.0
20260905132643 83 124 2.6 5.2 0.00 0.00 0.00 95 1021.0
20260905132003 82 125 2.6 3.5 0.00 0.00 0.00 96 1021.0
20260905131323 82 129 1.7 3.5 0.00 0.00 0.00 98 1021.1
20260905130643 82 127 2.6 2.6 0.00 0.00 0.00 98 1021.2
20260905125323 80 126 1.7 3.5 0.00 0.00 0.00 96 1021.2
20260905124643 79 123 2.6 3.5 0.00 0.00 0.00 95 1021.3
20260905123323 78 128 0.9 2.6 0.00 0.00 0.00 96 1021.2
20260905122643 77 121 1.7 2.6 0.00 0.00 0.00 96 1021.2
20260905122003 77 131 0.9 1.7 0.00 0.00 0.00 99 1021.2
20260905121323 76 139 1.7 2.6 0.00 0.00 0.00 98 1021.1
20260905115323 75 139 1.7 1.7 0.00 0.00 0.00 98 1021.0
20260905114643 75 139 1.7 1.7 0.00 0.00 0.00 98 1020.9
20260905113324 75 137 1.7 2.6 0.00 0.00 0.00 98 1020.9
20260905112643 75 131 0.9 1.7 0.00 0.00 0.00 98 1020.8
20260905112003 75 136 0.9 1.7 0.00 0.00 0.00 98 1020.8
20260905111323 75 136 1.7 1.7 0.00 0.00 0.00 98 1020.8